Time,TemperatureF,DewpointF,PressureIn,WindDirection,WindDirectionDegrees,WindSpeedMPH,WindSpeedGustMPH,Humidity,HourlyPrecipIn,Conditions,Clouds,dailyrainin,SoftwareType,DateUTC
2013-01-15 00:03:00,1.8,-1.9,30.62,SW,214,6.0,11.0,84,0.00,,---,0.00,VWS V13.01,2013-01-15 06:03:00,
2013-01-15 00:09:00,2.0,-1.7,30.62,SW,230,3.0,11.0,84,0.00,,---,0.00,VWS V13.01,2013-01-15 06:09:00,
2013-01-15 00:14:00,2.0,-1.7,30.62,WSW,240,2.0,11.0,84,0.00,,---,0.00,VWS V13.01,2013-01-15 06:14:00,
2013-01-15 00:19:00,2.1,-1.6,30.62,WSW,241,1.0,8.0,84,0.00,,---,0.00,VWS V13.01,2013-01-15 06:19:00,
2013-01-15 00:24:00,2.3,-1.7,30.62,SW,234,1.0,9.0,83,0.00,,---,0.00,VWS V13.01,2013-01-15 06:24:00,
2013-01-15 00:30:00,2.3,-1.7,30.62,West,270,1.0,10.0,83,0.00,,---,0.00,VWS V13.01,2013-01-15 06:30:00,
2013-01-15 00:35:00,2.4,-1.3,30.62,SW,221,3.0,9.0,84,0.00,,---,0.00,VWS V13.01,2013-01-15 06:35:00,
2013-01-15 00:40:00,2.6,-1.4,30.62,SSW,201,4.0,10.0,83,0.00,,---,0.00,VWS V13.01,2013-01-15 06:40:00,
2013-01-15 00:45:00,2.6,-1.4,30.62,SW,230,5.0,10.0,83,0.00,,---,0.00,VWS V13.01,2013-01-15 06:45:00,
2013-01-15 00:50:00,2.5,-1.5,30.62,SW,217,3.0,11.0,83,0.00,,---,0.00,VWS V13.01,2013-01-15 06:50:00,
2013-01-15 00:55:00,2.5,-1.5,30.62,SW,216,6.0,11.0,83,0.00,,---,0.00,VWS V13.01,2013-01-15 06:55:00,
2013-01-15 01:01:00,2.6,-1.4,30.61,SW,217,5.0,11.0,83,0.00,,---,0.00,VWS V13.01,2013-01-15 07:01:00,
2013-01-15 01:06:00,2.6,-1.4,30.61,SW,229,2.0,9.0,83,0.00,,---,0.00,VWS V13.01,2013-01-15 07:06:00,
2013-01-15 01:11:00,2.6,-1.4,30.61,SSW,213,7.0,10.0,83,0.00,,---,0.00,VWS V13.01,2013-01-15 07:11:00,
2013-01-15 01:16:00,2.6,-1.4,30.61,SW,214,1.0,10.0,83,0.00,,---,0.00,VWS V13.01,2013-01-15 07:16:00,
2013-01-15 01:21:00,2.6,-1.4,30.61,SSW,212,5.0,10.0,83,0.00,,---,0.00,VWS V13.01,2013-01-15 07:21:00,
2013-01-15 01:27:00,2.6,-1.4,30.61,SW,224,0.0,10.0,83,0.00,,---,0.00,VWS V13.01,2013-01-15 07:27:00,
2013-01-15 01:32:00,2.6,-1.4,30.61,SW,219,3.0,3.0,83,0.00,,---,0.00,VWS V13.01,2013-01-15 07:32:00,
2013-01-15 01:37:00,2.6,-1.4,30.61,SW,222,1.0,6.0,83,0.00,,---,0.00,VWS V13.01,2013-01-15 07:37:00,
2013-01-15 01:42:00,2.5,-1.5,30.61,SW,220,6.0,7.0,83,0.00,,---,0.00,VWS V13.01,2013-01-15 07:42:00,
2013-01-15 01:48:00,2.5,-1.5,30.61,SW,227,0.0,4.0,83,0.00,,---,0.00,VWS V13.01,2013-01-15 07:48:00,
2013-01-15 01:53:00,2.6,-1.4,30.61,SW,221,4.0,5.0,83,0.00,,---,0.00,VWS V13.01,2013-01-15 07:53:00,
2013-01-15 01:58:00,2.7,-1.3,30.61,SSW,208,5.0,6.0,83,0.00,,---,0.00,VWS V13.01,2013-01-15 07:58:00,
2013-01-15 02:03:00,2.7,-1.3,30.61,SW,216,3.0,6.0,83,0.00,,---,0.00,VWS V13.01,2013-01-15 08:03:00,
2013-01-15 02:08:00,2.8,-1.2,30.61,SW,219,4.0,6.0,83,0.00,,---,0.00,VWS V13.01,2013-01-15 08:08:00,
2013-01-15 02:14:00,2.7,-1.3,30.61,SW,220,2.0,6.0,83,0.00,,---,0.00,VWS V13.01,2013-01-15 08:14:00,
2013-01-15 02:19:00,2.8,-1.2,30.60,SW,219,1.0,6.0,83,0.00,,---,0.00,VWS V13.01,2013-01-15 08:19:00,
2013-01-15 02:24:00,2.8,-1.2,30.60,SW,225,3.0,7.0,83,0.00,,---,0.00,VWS V13.01,2013-01-15 08:24:00,
2013-01-15 02:29:00,3.2,-1.0,30.60,SW,223,1.0,7.0,82,0.00,,---,0.00,VWS V13.01,2013-01-15 08:29:00,
2013-01-15 02:35:00,3.4,-0.9,30.60,WSW,239,5.0,10.0,82,0.00,,---,0.00,VWS V13.01,2013-01-15 08:35:00,
2013-01-15 02:40:00,3.6,-0.6,30.60,SSW,197,2.0,10.0,82,0.00,,---,0.00,VWS V13.01,2013-01-15 08:40:00,
2013-01-15 02:45:00,3.6,-0.6,30.60,SSW,198,1.0,10.0,82,0.00,,---,0.00,VWS V13.01,2013-01-15 08:45:00,
2013-01-15 03:01:00,3.8,-0.5,30.58,SW,222,1.0,6.0,82,0.00,,---,0.00,VWS V13.01,2013-01-15 09:01:00,
2013-01-15 03:16:00,4.0,0.0,30.58,SW,223,0.0,5.0,83,0.00,,---,0.00,VWS V13.01,2013-01-15 09:16:00,
2013-01-15 03:31:00,4.2,0.2,30.58,SW,215,1.0,6.0,83,0.00,,---,0.00,VWS V13.01,2013-01-15 09:31:00,
2013-01-15 03:46:00,4.4,0.4,30.57,SSW,209,1.0,5.0,83,0.00,,---,0.00,VWS V13.01,2013-01-15 09:46:00,
2013-01-15 03:51:00,4.3,0.6,30.57,SSW,209,0.0,3.0,84,0.00,,---,0.00,VWS V13.01,2013-01-15 09:51:00,
2013-01-15 03:56:00,4.4,0.4,30.57,SSW,199,2.0,7.0,83,0.00,,---,0.00,VWS V13.01,2013-01-15 09:56:00,
2013-01-15 04:02:00,4.4,0.4,30.56,SW,236,2.0,5.0,83,0.00,,---,0.00,VWS V13.01,2013-01-15 10:02:00,
2013-01-15 04:07:00,4.4,0.4,30.56,SW,225,3.0,5.0,83,0.00,,---,0.00,VWS V13.01,2013-01-15 10:07:00,
2013-01-15 04:12:00,4.4,0.4,30.56,SW,225,0.0,5.0,83,0.00,,---,0.00,VWS V13.01,2013-01-15 10:12:00,
2013-01-15 04:17:00,4.4,0.6,30.56,SW,224,0.0,4.0,84,0.00,,---,0.00,VWS V13.01,2013-01-15 10:17:00,
2013-01-15 04:23:00,4.5,0.7,30.56,SSW,196,0.0,5.0,84,0.00,,---,0.00,VWS V13.01,2013-01-15 10:23:00,
2013-01-15 04:28:00,4.6,0.8,30.56,South,187,2.0,5.0,84,0.00,,---,0.00,VWS V13.01,2013-01-15 10:28:00,
2013-01-15 04:33:00,4.7,1.2,30.54,South,188,2.0,4.0,85,0.00,,---,0.00,VWS V13.01,2013-01-15 10:33:00,
2013-01-15 04:39:00,4.8,1.3,30.54,South,178,1.0,7.0,85,0.00,,---,0.00,VWS V13.01,2013-01-15 10:39:00,
2013-01-15 04:44:00,5.0,1.5,30.54,South,180,2.0,7.0,85,0.00,,---,0.00,VWS V13.01,2013-01-15 10:44:00,
2013-01-15 04:49:00,5.1,1.6,30.54,South,182,1.0,4.0,85,0.00,,---,0.00,VWS V13.01,2013-01-15 10:49:00,
2013-01-15 04:54:00,5.3,2.0,30.54,SSW,202,2.0,10.0,86,0.00,,---,0.00,VWS V13.01,2013-01-15 10:54:00,
2013-01-15 05:00:00,5.4,1.9,30.54,SSW,203,1.0,10.0,85,0.00,,---,0.00,VWS V13.01,2013-01-15 11:00:00,
2013-01-15 05:05:00,5.4,1.9,30.52,SSW,193,1.0,4.0,85,0.00,,---,0.00,VWS V13.01,2013-01-15 11:05:00,
2013-01-15 05:10:00,5.5,2.0,30.52,South,178,5.0,6.0,85,0.00,,---,0.00,VWS V13.01,2013-01-15 11:10:00,
2013-01-15 05:16:00,5.6,2.1,30.52,SW,216,2.0,6.0,85,0.00,,---,0.00,VWS V13.01,2013-01-15 11:16:00,
2013-01-15 05:21:00,5.8,2.3,30.52,SW,219,2.0,5.0,85,0.00,,---,0.00,VWS V13.01,2013-01-15 11:21:00,
2013-01-15 05:26:00,5.9,2.4,30.52,SW,222,3.0,10.0,85,0.00,,---,0.00,VWS V13.01,2013-01-15 11:26:00,
2013-01-15 05:31:00,6.0,2.5,30.51,SW,215,2.0,10.0,85,0.00,,---,0.00,VWS V13.01,2013-01-15 11:31:00,
2013-01-15 05:36:00,6.0,2.5,30.51,SW,232,6.0,10.0,85,0.00,,---,0.00,VWS V13.01,2013-01-15 11:36:00,
2013-01-15 05:42:00,6.0,2.5,30.51,SW,215,1.0,10.0,85,0.00,,---,0.00,VWS V13.01,2013-01-15 11:42:00,
2013-01-15 05:47:00,5.9,2.4,30.51,SW,225,4.0,9.0,85,0.00,,---,0.00,VWS V13.01,2013-01-15 11:47:00,
2013-01-15 05:52:00,5.8,2.3,30.51,SSW,213,2.0,10.0,85,0.00,,---,0.00,VWS V13.01,2013-01-15 11:52:00,
2013-01-15 05:57:00,5.6,2.1,30.51,SSW,209,2.0,10.0,85,0.00,,---,0.00,VWS V13.01,2013-01-15 11:57:00,
2013-01-15 06:03:00,5.5,2.0,30.50,SW,217,3.0,12.0,85,0.00,,---,0.00,VWS V13.01,2013-01-15 12:03:00,
2013-01-15 06:08:00,5.4,1.9,30.50,SW,219,4.0,12.0,85,0.00,,---,0.00,VWS V13.01,2013-01-15 12:08:00,
2013-01-15 06:13:00,5.3,2.0,30.50,SW,227,0.0,12.0,86,0.00,,---,0.00,VWS V13.01,2013-01-15 12:13:00,
2013-01-15 06:19:00,5.2,1.7,30.52,SW,236,7.0,10.0,85,0.00,,---,0.00,VWS V13.01,2013-01-15 12:19:00,
2013-01-15 06:24:00,5.1,1.6,30.52,SSW,212,4.0,10.0,85,0.00,,---,0.00,VWS V13.01,2013-01-15 12:24:00,
2013-01-15 06:29:00,4.8,1.3,30.52,SW,236,5.0,10.0,85,0.00,,---,0.00,VWS V13.01,2013-01-15 12:29:00,
2013-01-15 06:34:00,4.7,1.2,30.52,SSW,210,1.0,7.0,85,0.00,,---,0.00,VWS V13.01,2013-01-15 12:34:00,
2013-01-15 06:39:00,4.5,1.0,30.52,SW,221,3.0,9.0,85,0.00,,---,0.00,VWS V13.01,2013-01-15 12:39:00,
2013-01-15 06:45:00,4.4,0.9,30.52,WSW,247,1.0,9.0,85,0.00,,---,0.00,VWS V13.01,2013-01-15 12:45:00,
2013-01-15 06:50:00,4.4,1.1,30.52,SW,229,0.0,6.0,86,0.00,,---,0.00,VWS V13.01,2013-01-15 12:50:00,
2013-01-15 06:55:00,4.5,1.2,30.52,WSW,249,3.0,6.0,86,0.00,,---,0.00,VWS V13.01,2013-01-15 12:55:00,
2013-01-15 07:00:00,4.5,1.2,30.52,WSW,249,0.0,6.0,86,0.00,,---,0.00,VWS V13.01,2013-01-15 13:00:00,
2013-01-15 07:05:00,4.5,1.2,30.52,WSW,257,3.0,6.0,86,0.00,,---,0.00,VWS V13.01,2013-01-15 13:05:00,
2013-01-15 07:10:00,4.6,1.3,30.52,WSW,242,2.0,6.0,86,0.00,,---,0.00,VWS V13.01,2013-01-15 13:10:00,
2013-01-15 07:16:00,4.6,1.3,30.50,SW,233,0.0,6.0,86,0.00,,---,0.00,VWS V13.01,2013-01-15 13:16:00,
2013-01-15 07:21:00,4.6,1.1,30.50,WSW,248,0.0,5.0,85,0.00,,---,0.00,VWS V13.01,2013-01-15 13:21:00,
2013-01-15 07:26:00,4.6,1.1,30.50,WSW,247,4.0,5.0,85,0.00,,---,0.00,VWS V13.01,2013-01-15 13:26:00,
2013-01-15 07:31:00,4.6,1.3,30.50,WSW,256,3.0,6.0,86,0.00,,---,0.00,VWS V13.01,2013-01-15 13:31:00,
2013-01-15 07:36:00,4.5,1.0,30.50,WSW,256,2.0,6.0,85,0.00,,---,0.00,VWS V13.01,2013-01-15 13:36:00,
2013-01-15 07:42:00,4.4,1.1,30.50,West,261,5.0,6.0,86,0.00,,---,0.00,VWS V13.01,2013-01-15 13:42:00,
2013-01-15 07:47:00,4.5,1.2,30.49,West,259,3.0,3.0,86,0.00,,---,0.00,VWS V13.01,2013-01-15 13:47:00,
2013-01-15 07:52:00,4.5,1.2,30.49,West,263,2.0,10.0,86,0.00,,---,0.00,VWS V13.01,2013-01-15 13:52:00,
2013-01-15 07:57:00,4.5,1.2,30.49,SW,234,0.0,10.0,86,0.00,,---,0.00,VWS V13.01,2013-01-15 13:57:00,
2013-01-15 08:03:00,4.5,1.2,30.50,West,261,1.0,5.0,86,0.00,,---,0.00,VWS V13.01,2013-01-15 14:03:00,
2013-01-15 08:08:00,4.5,1.2,30.50,WSW,247,2.0,6.0,86,0.00,,---,0.00,VWS V13.01,2013-01-15 14:08:00,
2013-01-15 08:13:00,4.5,1.2,30.50,SW,236,1.0,6.0,86,0.00,,---,0.00,VWS V13.01,2013-01-15 14:13:00,
2013-01-15 08:18:00,4.5,1.2,30.48,WSW,246,2.0,4.0,86,0.00,,---,0.00,VWS V13.01,2013-01-15 14:18:00,
2013-01-15 08:24:00,4.5,1.2,30.48,WSW,250,0.0,5.0,86,0.00,,---,0.00,VWS V13.01,2013-01-15 14:24:00,
2013-01-15 08:29:00,4.4,1.1,30.48,West,271,1.0,9.0,86,0.00,,---,0.00,VWS V13.01,2013-01-15 14:29:00,
2013-01-15 08:34:00,4.3,1.0,30.50,SW,235,1.0,9.0,86,0.00,,---,0.00,VWS V13.01,2013-01-15 14:34:00,
2013-01-15 08:39:00,4.3,1.0,30.50,West,267,3.0,9.0,86,0.00,,---,0.00,VWS V13.01,2013-01-15 14:39:00,
2013-01-15 08:45:00,4.2,0.7,30.50,West,262,6.0,11.0,85,0.00,,---,0.00,VWS V13.01,2013-01-15 14:45:00,
2013-01-15 08:50:00,4.2,0.7,30.50,WSW,252,1.0,4.0,85,0.00,,---,0.00,VWS V13.01,2013-01-15 14:50:00,
2013-01-15 08:55:00,4.2,0.7,30.50,West,265,0.0,7.0,85,0.00,,---,0.00,VWS V13.01,2013-01-15 14:55:00,
2013-01-15 09:01:00,4.6,1.3,30.47,West,267,5.0,7.0,86,0.00,,---,0.00,VWS V13.01,2013-01-15 15:01:00,
2013-01-15 09:06:00,4.7,1.2,30.47,West,262,2.0,9.0,85,0.00,,---,0.00,VWS V13.01,2013-01-15 15:06:00,
2013-01-15 09:11:00,4.6,1.1,30.47,West,266,1.0,9.0,85,0.00,,---,0.00,VWS V13.01,2013-01-15 15:11:00,
2013-01-15 09:16:00,4.9,1.4,30.45,SW,231,2.0,9.0,85,0.00,,---,0.00,VWS V13.01,2013-01-15 15:16:00,
2013-01-15 09:21:00,5.3,1.8,30.45,West,259,2.0,6.0,85,0.00,,---,0.00,VWS V13.01,2013-01-15 15:21:00,
2013-01-15 09:26:00,5.4,1.6,30.45,SW,219,1.0,6.0,84,0.00,,---,0.00,VWS V13.01,2013-01-15 15:26:00,
2013-01-15 09:32:00,5.8,2.0,30.45,West,259,1.0,2.0,84,0.00,,---,0.00,VWS V13.01,2013-01-15 15:32:00,
2013-01-15 09:37:00,6.1,2.3,30.45,West,261,2.0,5.0,84,0.00,,---,0.00,VWS V13.01,2013-01-15 15:37:00,
2013-01-15 09:42:00,6.1,2.1,30.45,SW,236,1.0,9.0,83,0.00,,---,0.00,VWS V13.01,2013-01-15 15:42:00,
2013-01-15 09:48:00,6.4,2.3,30.45,WSW,251,1.0,5.0,83,0.00,,---,0.00,VWS V13.01,2013-01-15 15:48:00,
2013-01-15 09:53:00,6.7,2.6,30.45,SW,235,3.0,12.0,83,0.00,,---,0.00,VWS V13.01,2013-01-15 15:53:00,
2013-01-15 09:58:00,6.8,2.7,30.45,SW,232,3.0,12.0,83,0.00,,---,0.00,VWS V13.01,2013-01-15 15:58:00,
2013-01-15 10:03:00,7.1,2.8,30.43,WSW,246,5.0,9.0,82,0.00,,---,0.00,VWS V13.01,2013-01-15 16:03:00,
2013-01-15 10:09:00,7.2,2.9,30.43,WSW,242,3.0,10.0,82,0.00,,---,0.00,VWS V13.01,2013-01-15 16:09:00,
2013-01-15 10:14:00,7.4,3.1,30.43,SW,217,3.0,10.0,82,0.00,,---,0.00,VWS V13.01,2013-01-15 16:14:00,
2013-01-15 10:19:00,7.5,3.2,30.43,West,267,4.0,10.0,82,0.00,,---,0.00,VWS V13.01,2013-01-15 16:19:00,
2013-01-15 10:24:00,7.8,3.5,30.43,SW,223,4.0,10.0,82,0.00,,---,0.00,VWS V13.01,2013-01-15 16:24:00,
2013-01-15 10:30:00,8.1,3.5,30.43,WSW,251,5.0,10.0,81,0.00,,---,0.00,VWS V13.01,2013-01-15 16:30:00,
2013-01-15 10:35:00,8.3,3.7,30.41,SW,227,4.0,8.0,81,0.00,,---,0.00,VWS V13.01,2013-01-15 16:35:00,
2013-01-15 10:40:00,8.5,3.6,30.41,WSW,237,6.0,8.0,80,0.00,,---,0.00,VWS V13.01,2013-01-15 16:40:00,
2013-01-15 10:45:00,8.6,3.7,30.40,SW,234,3.0,11.0,80,0.00,,---,0.00,VWS V13.01,2013-01-15 16:45:00,
2013-01-15 10:51:00,8.7,4.1,30.40,WSW,238,8.0,10.0,81,0.00,,---,0.00,VWS V13.01,2013-01-15 16:51:00,
2013-01-15 10:56:00,8.9,4.3,30.40,WSW,241,2.0,10.0,81,0.00,,---,0.00,VWS V13.01,2013-01-15 16:56:00,
2013-01-15 11:01:00,9.4,4.2,30.39,SW,222,5.0,10.0,79,0.00,,---,0.00,VWS V13.01,2013-01-15 17:01:00,
2013-01-15 11:06:00,9.7,4.5,30.39,SW,231,8.0,11.0,79,0.00,,---,0.00,VWS V13.01,2013-01-15 17:06:00,
2013-01-15 11:12:00,9.9,4.4,30.39,SW,227,5.0,11.0,78,0.00,,---,0.00,VWS V13.01,2013-01-15 17:12:00,
2013-01-15 11:17:00,10.1,4.6,30.36,SW,230,3.0,7.0,78,0.00,,---,0.00,VWS V13.01,2013-01-15 17:17:00,
2013-01-15 11:22:00,10.2,4.7,30.36,SW,215,10.0,14.0,78,0.00,,---,0.00,VWS V13.01,2013-01-15 17:22:00,
2013-01-15 11:27:00,10.7,5.2,30.36,SSW,203,5.0,14.0,78,0.00,,---,0.00,VWS V13.01,2013-01-15 17:27:00,
2013-01-15 11:33:00,11.6,5.8,30.35,SW,220,11.0,12.0,77,0.00,,---,0.00,VWS V13.01,2013-01-15 17:33:00,
2013-01-15 11:38:00,11.6,5.2,30.35,West,259,6.0,12.0,75,0.00,,---,0.00,VWS V13.01,2013-01-15 17:38:00,
2013-01-15 11:43:00,12.0,5.3,30.35,West,272,1.0,16.0,74,0.00,,---,0.00,VWS V13.01,2013-01-15 17:43:00,
2013-01-15 11:48:00,12.0,5.6,30.32,SW,227,6.0,10.0,75,0.00,,---,0.00,VWS V13.01,2013-01-15 17:48:00,
2013-01-15 11:54:00,12.5,5.8,30.32,SW,236,5.0,12.0,74,0.00,,---,0.00,VWS V13.01,2013-01-15 17:54:00,
2013-01-15 11:59:00,12.8,6.1,30.32,SW,234,9.0,16.0,74,0.00,,---,0.00,VWS V13.01,2013-01-15 17:59:00,
2013-01-15 12:04:00,12.8,5.8,30.31,SSW,206,10.0,10.0,73,0.00,,---,0.00,VWS V13.01,2013-01-15 18:04:00,
2013-01-15 12:09:00,13.4,6.1,30.31,SW,232,6.0,12.0,72,0.00,,---,0.00,VWS V13.01,2013-01-15 18:09:00,
2013-01-15 12:15:00,13.6,6.0,30.31,SW,228,0.0,15.0,71,0.00,,---,0.00,VWS V13.01,2013-01-15 18:15:00,
2013-01-15 12:20:00,14.3,6.9,30.28,South,184,2.0,5.0,72,0.00,,---,0.00,VWS V13.01,2013-01-15 18:20:00,
2013-01-15 12:25:00,14.9,6.9,30.28,South,176,5.0,10.0,70,0.00,,---,0.00,VWS V13.01,2013-01-15 18:25:00,
2013-01-15 12:30:00,14.6,5.7,30.25,South,184,6.0,16.0,67,0.00,,---,0.00,VWS V13.01,2013-01-15 18:30:00,
2013-01-15 12:36:00,15.3,6.3,30.25,South,175,2.0,9.0,67,0.00,,---,0.00,VWS V13.01,2013-01-15 18:36:00,
2013-01-15 12:41:00,15.9,5.9,30.25,South,190,2.0,11.0,64,0.00,,---,0.00,VWS V13.01,2013-01-15 18:41:00,
2013-01-15 12:46:00,15.6,5.9,30.24,South,187,2.0,15.0,65,0.00,,---,0.00,VWS V13.01,2013-01-15 18:46:00,
2013-01-15 12:51:00,16.1,5.4,30.24,SSW,212,10.0,14.0,62,0.00,,---,0.00,VWS V13.01,2013-01-15 18:51:00,
2013-01-15 12:57:00,15.6,4.9,30.24,SW,236,11.0,14.0,62,0.00,,---,0.00,VWS V13.01,2013-01-15 18:57:00,
2013-01-15 13:02:00,15.0,4.7,30.24,SW,227,4.0,10.0,63,0.00,,---,0.00,VWS V13.01,2013-01-15 19:02:00,
2013-01-15 13:07:00,15.3,5.3,30.24,SW,219,6.0,12.0,64,0.00,,---,0.00,VWS V13.01,2013-01-15 19:07:00,
2013-01-15 13:12:00,15.3,4.6,30.24,SSW,193,3.0,16.0,62,0.00,,---,0.00,VWS V13.01,2013-01-15 19:12:00,
2013-01-15 13:18:00,15.2,4.5,30.23,SSW,193,5.0,6.0,62,0.00,,---,0.00,VWS V13.01,2013-01-15 19:18:00,
2013-01-15 13:23:00,15.4,4.7,30.23,SW,215,13.0,13.0,62,0.00,,---,0.00,VWS V13.01,2013-01-15 19:23:00,
2013-01-15 13:28:00,15.4,4.0,30.23,SW,218,14.0,14.0,60,0.00,,---,0.00,VWS V13.01,2013-01-15 19:28:00,
2013-01-15 13:33:00,15.5,4.1,30.23,SW,221,2.0,13.0,60,0.00,,---,0.00,VWS V13.01,2013-01-15 19:33:00,
2013-01-15 13:39:00,15.7,4.7,30.23,SW,223,1.0,13.0,61,0.00,,---,0.00,VWS V13.01,2013-01-15 19:39:00,
2013-01-15 13:44:00,16.1,5.0,30.23,SW,218,2.0,13.0,61,0.00,,---,0.00,VWS V13.01,2013-01-15 19:44:00,
2013-01-15 13:49:00,16.3,4.5,30.21,SW,221,3.0,9.0,59,0.00,,---,0.00,VWS V13.01,2013-01-15 19:49:00,
2013-01-15 13:55:00,16.4,3.8,30.21,SSW,210,4.0,15.0,57,0.00,,---,0.00,VWS V13.01,2013-01-15 19:55:00,
2013-01-15 14:00:00,16.2,4.0,30.21,SW,217,7.0,15.0,58,0.00,,---,0.00,VWS V13.01,2013-01-15 20:00:00,
2013-01-15 14:05:00,16.7,4.9,30.21,South,169,4.0,8.0,59,0.00,,---,0.00,VWS V13.01,2013-01-15 20:05:00,
2013-01-15 14:10:00,17.1,4.9,30.21,SSW,209,4.0,17.0,58,0.00,,---,0.00,VWS V13.01,2013-01-15 20:10:00,
2013-01-15 14:16:00,17.0,4.4,30.17,SSW,196,7.0,17.0,57,0.00,,---,0.00,VWS V13.01,2013-01-15 20:16:00,
2013-01-15 14:21:00,17.0,4.8,30.17,South,186,3.0,15.0,58,0.00,,---,0.00,VWS V13.01,2013-01-15 20:21:00,
2013-01-15 14:26:00,17.5,5.3,30.17,SSW,193,2.0,15.0,58,0.00,,---,0.00,VWS V13.01,2013-01-15 20:26:00,
2013-01-15 14:31:00,18.1,5.4,30.15,SSW,203,4.0,15.0,57,0.00,,---,0.00,VWS V13.01,2013-01-15 20:31:00,
2013-01-15 14:36:00,18.2,5.9,30.15,SSW,195,4.0,13.0,58,0.00,,---,0.00,VWS V13.01,2013-01-15 20:36:00,
2013-01-15 14:42:00,18.3,6.0,30.15,South,173,3.0,13.0,58,0.00,,---,0.00,VWS V13.01,2013-01-15 20:42:00,
2013-01-15 14:47:00,18.3,6.0,30.14,SW,220,2.0,10.0,58,0.00,,---,0.00,VWS V13.01,2013-01-15 20:47:00,
2013-01-15 14:52:00,18.3,6.4,30.14,South,182,4.0,14.0,59,0.00,,---,0.00,VWS V13.01,2013-01-15 20:52:00,
2013-01-15 14:57:00,18.3,6.0,30.14,South,182,4.0,16.0,58,0.00,,---,0.00,VWS V13.01,2013-01-15 20:57:00,
2013-01-15 15:03:00,18.4,6.5,30.14,SSW,207,5.0,14.0,59,0.00,,---,0.00,VWS V13.01,2013-01-15 21:03:00,
2013-01-15 15:08:00,18.5,6.9,30.14,South,188,5.0,16.0,60,0.00,,---,0.00,VWS V13.01,2013-01-15 21:08:00,
2013-01-15 15:13:00,18.6,7.0,30.14,SSW,202,8.0,16.0,60,0.00,,---,0.00,VWS V13.01,2013-01-15 21:13:00,
2013-01-15 15:18:00,18.8,7.2,30.13,SSW,205,5.0,7.0,60,0.00,,---,0.00,VWS V13.01,2013-01-15 21:18:00,
2013-01-15 15:23:00,18.6,7.4,30.13,South,180,2.0,11.0,61,0.00,,---,0.00,VWS V13.01,2013-01-15 21:23:00,
2013-01-15 15:29:00,18.5,7.3,30.13,SSW,200,3.0,11.0,61,0.00,,---,0.00,VWS V13.01,2013-01-15 21:29:00,
2013-01-15 15:34:00,18.1,7.3,30.12,SSW,208,5.0,10.0,62,0.00,,---,0.00,VWS V13.01,2013-01-15 21:34:00,
2013-01-15 15:39:00,17.8,7.0,30.12,South,178,4.0,10.0,62,0.00,,---,0.00,VWS V13.01,2013-01-15 21:39:00,
2013-01-15 15:44:00,17.5,6.7,30.12,SSW,200,1.0,12.0,62,0.00,,---,0.00,VWS V13.01,2013-01-15 21:44:00,
2013-01-15 15:49:00,17.4,7.0,30.11,SSW,200,3.0,11.0,63,0.00,,---,0.00,VWS V13.01,2013-01-15 21:49:00,
2013-01-15 15:55:00,17.3,6.9,30.11,SSW,200,4.0,11.0,63,0.00,,---,0.00,VWS V13.01,2013-01-15 21:55:00,
2013-01-15 16:00:00,17.3,7.2,30.11,South,186,5.0,13.0,64,0.00,,---,0.00,VWS V13.01,2013-01-15 22:00:00,
2013-01-15 16:05:00,17.1,7.0,30.11,South,178,1.0,7.0,64,0.00,,---,0.00,VWS V13.01,2013-01-15 22:05:00,
2013-01-15 16:10:00,16.8,6.8,30.11,South,181,6.0,12.0,64,0.00,,---,0.00,VWS V13.01,2013-01-15 22:10:00,
2013-01-15 16:16:00,16.5,6.8,30.09,South,171,3.0,12.0,65,0.00,,---,0.00,VWS V13.01,2013-01-15 22:16:00,
2013-01-15 16:21:00,16.2,6.5,30.09,South,191,3.0,12.0,65,0.00,,---,0.00,VWS V13.01,2013-01-15 22:21:00,
2013-01-15 16:26:00,16.0,6.7,30.09,South,185,2.0,19.0,66,0.00,,---,0.00,VWS V13.01,2013-01-15 22:26:00,
2013-01-15 16:31:00,15.9,6.6,30.09,SSW,209,7.0,19.0,66,0.00,,---,0.00,VWS V13.01,2013-01-15 22:31:00,
2013-01-15 16:36:00,15.7,6.7,30.09,SSW,205,7.0,11.0,67,0.00,,---,0.00,VWS V13.01,2013-01-15 22:36:00,
2013-01-15 16:41:00,15.4,6.4,30.09,South,184,4.0,11.0,67,0.00,,---,0.00,VWS V13.01,2013-01-15 22:41:00,
2013-01-15 16:47:00,15.1,6.5,30.09,South,176,5.0,13.0,68,0.00,,---,0.00,VWS V13.01,2013-01-15 22:47:00,
2013-01-15 16:52:00,14.9,6.9,30.09,South,178,3.0,15.0,70,0.00,,---,0.00,VWS V13.01,2013-01-15 22:52:00,
2013-01-15 16:57:00,14.7,7.0,30.09,SSW,202,11.0,15.0,71,0.00,,---,0.00,VWS V13.01,2013-01-15 22:57:00,
2013-01-15 17:03:00,14.4,7.0,30.08,SSW,196,3.0,10.0,72,0.00,,---,0.00,VWS V13.01,2013-01-15 23:03:00,
2013-01-15 17:08:00,14.3,7.2,30.08,SSW,198,7.0,17.0,73,0.00,,---,0.00,VWS V13.01,2013-01-15 23:08:00,
2013-01-15 17:13:00,14.3,7.2,30.08,South,171,3.0,17.0,73,0.00,,---,0.00,VWS V13.01,2013-01-15 23:13:00,
2013-01-15 17:18:00,14.3,7.6,30.07,South,180,4.0,11.0,74,0.00,,---,0.00,VWS V13.01,2013-01-15 23:18:00,
2013-01-15 17:24:00,14.3,7.2,30.07,SSW,200,4.0,19.0,73,0.00,,---,0.00,VWS V13.01,2013-01-15 23:24:00,
2013-01-15 17:29:00,14.3,7.2,30.07,South,175,9.0,19.0,73,0.00,,---,0.00,VWS V13.01,2013-01-15 23:29:00,
2013-01-15 17:34:00,14.3,7.2,30.07,South,186,6.0,21.0,73,0.00,,---,0.00,VWS V13.01,2013-01-15 23:34:00,
2013-01-15 17:39:00,14.3,7.2,30.07,SW,217,3.0,21.0,73,0.00,,---,0.00,VWS V13.01,2013-01-15 23:39:00,
2013-01-15 17:45:00,14.2,7.4,30.07,SSE,163,5.0,21.0,74,0.00,,---,0.00,VWS V13.01,2013-01-15 23:45:00,
2013-01-15 17:50:00,14.1,7.3,30.06,SSW,204,5.0,15.0,74,0.00,,---,0.00,VWS V13.01,2013-01-15 23:50:00,
2013-01-15 17:55:00,14.2,7.4,30.06,SSW,192,11.0,17.0,74,0.00,,---,0.00,VWS V13.01,2013-01-15 23:55:00,
2013-01-15 18:01:00,14.2,7.4,30.05,SSW,205,5.0,17.0,74,0.00,,---,0.00,VWS V13.01,2013-01-16 00:01:00,
2013-01-15 18:06:00,14.3,7.6,30.05,SSW,198,11.0,14.0,74,0.00,,---,0.00,VWS V13.01,2013-01-16 00:06:00,
2013-01-15 18:11:00,14.4,7.6,30.05,SSW,207,2.0,17.0,74,0.00,,---,0.00,VWS V13.01,2013-01-16 00:11:00,
2013-01-15 18:16:00,14.4,7.6,30.07,SSW,207,3.0,17.0,74,0.00,,---,0.00,VWS V13.01,2013-01-16 00:16:00,
2013-01-15 18:21:00,14.5,7.7,30.07,SSW,201,6.0,17.0,74,0.00,,---,0.00,VWS V13.01,2013-01-16 00:21:00,
2013-01-15 18:27:00,14.6,7.8,30.07,SW,220,5.0,17.0,74,0.00,,---,0.00,VWS V13.01,2013-01-16 00:27:00,
2013-01-15 18:32:00,14.7,7.9,30.04,SSW,209,7.0,8.0,74,0.00,,---,0.00,VWS V13.01,2013-01-16 00:32:00,
2013-01-15 18:37:00,14.8,8.0,30.04,South,180,4.0,17.0,74,0.00,,---,0.00,VWS V13.01,2013-01-16 00:37:00,
2013-01-15 18:42:00,15.0,7.9,30.04,South,176,6.0,17.0,73,0.00,,---,0.00,VWS V13.01,2013-01-16 00:42:00,
2013-01-15 18:48:00,15.1,8.0,30.03,South,180,6.0,11.0,73,0.00,,---,0.00,VWS V13.01,2013-01-16 00:48:00,
2013-01-15 18:53:00,15.3,8.2,30.03,SW,221,14.0,14.0,73,0.00,,---,0.00,VWS V13.01,2013-01-16 00:53:00,
2013-01-15 18:58:00,15.4,8.3,30.03,SSW,211,10.0,14.0,73,0.00,,---,0.00,VWS V13.01,2013-01-16 00:58:00,
2013-01-15 19:03:00,15.5,8.1,30.03,SSW,192,3.0,11.0,72,0.00,,---,0.00,VWS V13.01,2013-01-16 01:03:00,
2013-01-15 19:09:00,15.7,8.3,30.03,South,176,7.0,13.0,72,0.00,,---,0.00,VWS V13.01,2013-01-16 01:09:00,
2013-01-15 19:14:00,15.8,8.1,30.03,SSW,205,4.0,14.0,71,0.00,,---,0.00,VWS V13.01,2013-01-16 01:14:00,
2013-01-15 19:19:00,15.9,8.2,30.01,SSE,155,11.0,13.0,71,0.00,,---,0.00,VWS V13.01,2013-01-16 01:19:00,
2013-01-15 19:24:00,16.1,8.1,30.01,South,173,11.0,15.0,70,0.00,,---,0.00,VWS V13.01,2013-01-16 01:24:00,
2013-01-15 19:30:00,16.2,8.1,30.01,South,179,3.0,15.0,70,0.00,,---,0.00,VWS V13.01,2013-01-16 01:30:00,
2013-01-15 19:35:00,16.2,8.1,30.00,SW,217,6.0,18.0,70,0.00,,---,0.00,VWS V13.01,2013-01-16 01:35:00,
2013-01-15 19:40:00,16.2,8.1,30.00,SSW,199,6.0,18.0,70,0.00,,---,0.00,VWS V13.01,2013-01-16 01:40:00,
2013-01-15 19:45:00,16.1,8.1,29.99,South,190,7.0,18.0,70,0.00,,---,0.00,VWS V13.01,2013-01-16 01:45:00,
2013-01-15 19:51:00,16.2,8.1,29.99,SW,232,11.0,15.0,70,0.00,,---,0.00,VWS V13.01,2013-01-16 01:51:00,
2013-01-15 19:56:00,16.2,8.1,29.99,South,180,4.0,15.0,70,0.00,,---,0.00,VWS V13.01,2013-01-16 01:56:00,
2013-01-15 20:01:00,16.1,8.1,29.97,SSW,211,6.0,16.0,70,0.00,,---,0.00,VWS V13.01,2013-01-16 02:01:00,
2013-01-15 20:06:00,16.1,8.1,29.97,SSW,205,4.0,14.0,70,0.00,,---,0.00,VWS V13.01,2013-01-16 02:06:00,
2013-01-15 20:11:00,16.1,8.1,29.97,SSW,211,9.0,14.0,70,0.00,,---,0.00,VWS V13.01,2013-01-16 02:11:00,
2013-01-15 20:17:00,16.1,7.7,29.95,WSW,242,6.0,6.0,69,0.00,,---,0.00,VWS V13.01,2013-01-16 02:17:00,
2013-01-15 20:22:00,16.2,7.8,29.95,SSE,157,3.0,13.0,69,0.00,,---,0.00,VWS V13.01,2013-01-16 02:22:00,
2013-01-15 20:27:00,16.1,8.1,29.95,SSW,198,3.0,13.0,70,0.00,,---,0.00,VWS V13.01,2013-01-16 02:27:00,
2013-01-15 20:32:00,16.2,7.8,29.95,SW,221,5.0,17.0,69,0.00,,---,0.00,VWS V13.01,2013-01-16 02:32:00,
2013-01-15 20:38:00,16.2,7.8,29.95,SSE,161,5.0,17.0,69,0.00,,---,0.00,VWS V13.01,2013-01-16 02:38:00,
2013-01-15 20:43:00,16.2,7.8,29.95,South,177,3.0,17.0,69,0.00,,---,0.00,VWS V13.01,2013-01-16 02:43:00,
2013-01-15 20:48:00,16.1,8.1,29.93,South,173,12.0,14.0,70,0.00,,---,0.00,VWS V13.01,2013-01-16 02:48:00,
2013-01-15 20:53:00,16.3,7.9,29.93,SSW,203,4.0,14.0,69,0.00,,---,0.00,VWS V13.01,2013-01-16 02:53:00,
2013-01-15 20:59:00,16.2,7.8,29.93,South,189,6.0,14.0,69,0.00,,---,0.00,VWS V13.01,2013-01-16 02:59:00,
2013-01-15 21:04:00,16.3,7.9,29.92,SSW,203,5.0,7.0,69,0.00,,---,0.00,VWS V13.01,2013-01-16 03:04:00,
2013-01-15 21:09:00,16.3,7.9,29.92,SSW,207,4.0,11.0,69,0.00,,---,0.00,VWS V13.01,2013-01-16 03:09:00,
2013-01-15 21:14:00,16.4,7.7,29.92,SW,223,4.0,15.0,68,0.00,,---,0.00,VWS V13.01,2013-01-16 03:14:00,
2013-01-15 21:20:00,16.4,8.0,29.87,SSE,168,6.0,11.0,69,0.00,,---,0.00,VWS V13.01,2013-01-16 03:20:00,
2013-01-15 21:25:00,16.5,8.1,29.87,WSW,240,3.0,14.0,69,0.00,,---,0.00,VWS V13.01,2013-01-16 03:25:00,
2013-01-15 21:30:00,16.6,7.9,29.87,South,187,4.0,14.0,68,0.00,,---,0.00,VWS V13.01,2013-01-16 03:30:00,
2013-01-15 21:35:00,16.7,8.0,29.86,SSW,200,2.0,15.0,68,0.00,,---,0.00,VWS V13.01,2013-01-16 03:35:00,
2013-01-15 21:41:00,16.7,8.0,29.86,SW,230,4.0,16.0,68,0.00,,---,0.00,VWS V13.01,2013-01-16 03:41:00,
2013-01-15 21:46:00,16.7,8.0,29.85,SSW,201,4.0,20.0,68,0.00,,---,0.00,VWS V13.01,2013-01-16 03:46:00,
2013-01-15 21:51:00,16.7,8.0,29.85,South,188,4.0,17.0,68,0.00,,---,0.00,VWS V13.01,2013-01-16 03:51:00,
2013-01-15 21:57:00,16.8,8.1,29.85,SW,219,5.0,17.0,68,0.00,,---,0.00,VWS V13.01,2013-01-16 03:57:00,
2013-01-15 22:02:00,16.9,8.2,29.84,SSE,155,11.0,11.0,68,0.00,,---,0.00,VWS V13.01,2013-01-16 04:02:00,
2013-01-15 22:07:00,16.9,8.2,29.84,SW,218,6.0,17.0,68,0.00,,---,0.00,VWS V13.01,2013-01-16 04:07:00,
2013-01-15 22:12:00,17.0,8.3,29.84,SSW,210,4.0,17.0,68,0.00,,---,0.00,VWS V13.01,2013-01-16 04:12:00,
2013-01-15 22:18:00,17.0,8.3,29.81,SSW,205,6.0,13.0,68,0.00,,---,0.00,VWS V13.01,2013-01-16 04:18:00,
2013-01-15 22:23:00,17.1,8.4,29.81,SSW,212,4.0,16.0,68,0.00,,---,0.00,VWS V13.01,2013-01-16 04:23:00,
2013-01-15 22:28:00,17.2,8.5,29.81,SSW,196,3.0,16.0,68,0.00,,---,0.00,VWS V13.01,2013-01-16 04:28:00,
2013-01-15 22:33:00,17.2,8.5,29.79,SW,217,9.0,10.0,68,0.00,,---,0.00,VWS V13.01,2013-01-16 04:33:00,
2013-01-15 22:39:00,17.3,8.6,29.79,South,188,3.0,13.0,68,0.00,,---,0.00,VWS V13.01,2013-01-16 04:39:00,
2013-01-15 22:44:00,17.4,9.0,29.79,SSW,201,3.0,13.0,69,0.00,,---,0.00,VWS V13.01,2013-01-16 04:44:00,
2013-01-15 22:49:00,17.5,9.1,29.78,SW,235,9.0,11.0,69,0.00,,---,0.00,VWS V13.01,2013-01-16 04:49:00,
2013-01-15 22:54:00,17.5,9.1,29.78,South,172,6.0,11.0,69,0.00,,---,0.00,VWS V13.01,2013-01-16 04:54:00,
2013-01-15 23:00:00,17.6,9.2,29.78,SSW,203,6.0,16.0,69,0.00,,---,0.00,VWS V13.01,2013-01-16 05:00:00,
2013-01-15 23:03:00,17.6,9.2,29.75,SSW,212,3.0,9.0,69,0.00,,---,0.00,VWS V13.01,2013-01-16 05:03:00,
2013-01-15 23:08:00,17.7,9.6,29.75,SW,217,7.0,15.0,70,0.00,,---,0.00,VWS V13.01,2013-01-16 05:08:00,
2013-01-15 23:13:00,17.8,9.7,29.75,SSW,212,5.0,15.0,70,0.00,,---,0.00,VWS V13.01,2013-01-16 05:13:00,
2013-01-15 23:19:00,17.8,9.7,29.73,South,191,5.0,6.0,70,0.00,,---,0.00,VWS V13.01,2013-01-16 05:19:00,
2013-01-15 23:24:00,17.9,9.5,29.73,SW,235,6.0,17.0,69,0.00,,---,0.00,VWS V13.01,2013-01-16 05:24:00,
2013-01-15 23:29:00,18.0,9.6,29.73,SW,220,9.0,17.0,69,0.00,,---,0.00,VWS V13.01,2013-01-16 05:29:00,
2013-01-15 23:34:00,18.0,9.9,29.72,SSW,192,3.0,13.0,70,0.00,,---,0.00,VWS V13.01,2013-01-16 05:34:00,
2013-01-15 23:40:00,18.0,9.9,29.72,South,174,3.0,14.0,70,0.00,,---,0.00,VWS V13.01,2013-01-16 05:40:00,
2013-01-15 23:45:00,18.0,9.9,29.72,South,173,6.0,14.0,70,0.00,,---,0.00,VWS V13.01,2013-01-16 05:45:00,
2013-01-15 23:50:00,18.1,10.0,29.69,SSE,165,4.0,12.0,70,0.00,,---,0.00,VWS V13.01,2013-01-16 05:50:00,
2013-01-15 23:55:00,18.2,10.1,29.69,SSW,202,9.0,17.0,70,0.00,,---,0.00,VWS V13.01,2013-01-16 05:55:00,